Weather History for Paris Orly, France

Change the Weather History Date:

Thursday, February 28, 2013

  Actual Average Record
Temperature  
Mean Temperature 36 °F -  
Max Temperature 37 °F 53 °F 64 °F (1997)
Min Temperature 34 °F 38 °F 19 °F (2005)
Degree Days  
Heating Degree Days 30    
Moisture  
Dew Point 32 °F    
Average Humidity 87    
Maximum Humidity 93    
Minimum Humidity 74    
Precipitation  
Precipitation 0.00 in - - ()
Sea Level Pressure  
Sea Level Pressure 30.28 in    
Wind  
Wind Speed 7 mph ()    
Max Wind Speed 12 mph    
Max Gust Speed -    
Visibility 5.0 miles    
Events      
Averages and records for this station are not official NWS values.
T = Trace of Precipitation, MM = Missing Value Source: Averaged Metar Reports

Daily Weather History Graph

Daily Weather History Graph

Search for Another Location

Airport:

Trip Planner

Search our weather history database for the weather conditions in past years. The results will help you decide how hot, cold, wet, or windy it might be!

Date:

Astronomy

Feb. 28, 2013 Rise Set
Actual Time 7:34 AM CET 6:32 PM CET
Civil Twilight 7:02 AM CET 7:04 PM CET
Nautical Twilight 6:26 AM CET 7:40 PM CET
Astronomical Twilight 5:49 AM CET 8:17 PM CET
Moon 10:03 PM CET (2/28) 8:16 AM CET (2/28)
Length of Visible Light 12h 01m
Length of Day
10h 58m
Waning Gibbous, 92% of the Moon is Illuminated
Feb 28
Waning Gibbous
Mar 4
Last Quarter
Mar 11
New
Mar 19
First Quarter
Mar 27
Full

Hourly Weather History & Observations

Time (CET) Temp. Windchill Dew Point Humidity Pressure Visibility Wind Dir Wind Speed Gust Speed Precip Events Conditions
12:00 AM 35.6 °F 29.9 °F 33.8 °F 93% 30.36 in 3.7 mi NNE 6.9 mph - N/A   Overcast
12:30 AM 35.6 °F 29.9 °F 33.8 °F 93% 30.33 in 3.7 mi NNE 6.9 mph - N/A   Overcast
1:00 AM 35 °F - 33 °F 89% 30.37 in 4 mi NNE 6.9 mph - -   Partly Cloudy
1:00 AM 35.6 °F 29.9 °F 33.8 °F 93% 30.33 in 3.7 mi NNE 6.9 mph - N/A   Overcast
1:30 AM 35.6 °F 28.6 °F 33.8 °F 93% 30.33 in 2.8 mi NNE 9.2 mph - N/A   Mostly Cloudy
2:00 AM 35.6 °F 29.2 °F 33.8 °F 93% 30.33 in 2.8 mi NNE 8.1 mph - N/A   Mostly Cloudy
2:30 AM 35.6 °F 29.2 °F 33.8 °F 93% 30.33 in 2.8 mi NNE 8.1 mph - N/A   Mostly Cloudy
3:00 AM 35.6 °F 29.2 °F 33.8 °F 93% 30.33 in 2.8 mi NNE 8.1 mph - N/A   Overcast
3:30 AM 35.6 °F 28.6 °F 33.8 °F 93% 30.30 in 3.1 mi NE 9.2 mph - N/A   Mostly Cloudy
4:00 AM 35.6 °F 28.6 °F 33.8 °F 93% 30.30 in 3.7 mi NNE 9.2 mph - N/A   Mostly Cloudy
4:08 AM 35.6 °F 29.2 °F 33.8 °F 93% 30.30 in 3.7 mi NNE 8.1 mph - N/A   Mostly Cloudy
4:30 AM 35.6 °F 28.6 °F 33.8 °F 93% 30.30 in 3.7 mi NE 9.2 mph - N/A   Overcast
5:00 AM 35.6 °F 28.6 °F 32.0 °F 87% 30.30 in 3.7 mi NE 9.2 mph - N/A   Overcast
5:30 AM 35.6 °F 28.6 °F 32.0 °F 87% 30.27 in 3.7 mi NE 9.2 mph - N/A   Light Drizzle
6:00 AM 35.6 °F 28.6 °F 32.0 °F 87% 30.27 in 3.7 mi NNE 9.2 mph - N/A   Overcast
6:30 AM 35.6 °F 30.7 °F 32.0 °F 87% 30.27 in 3.7 mi NE 5.8 mph - N/A   Overcast
7:00 AM 35 °F - 33 °F 87% 30.31 in 4 mi NE 8.1 mph - -   Partly Cloudy
7:00 AM 35.6 °F 29.2 °F 32.0 °F 87% 30.27 in 3.7 mi NE 8.1 mph - N/A   Overcast
7:30 AM 35.6 °F 28.6 °F 32.0 °F 87% 30.27 in 2.8 mi NE 9.2 mph - N/A   Overcast
8:00 AM 35.6 °F 28.6 °F 32.0 °F 87% 30.27 in 3.7 mi NE 9.2 mph - N/A   Overcast
8:30 AM 35.6 °F 28.6 °F 32.0 °F 87% 30.30 in 3.7 mi NE 9.2 mph - N/A   Overcast
9:00 AM 35.6 °F 29.2 °F 32.0 °F 87% 30.30 in 4.3 mi NE 8.1 mph - N/A   Overcast
9:30 AM 35.6 °F 29.2 °F 32.0 °F 87% 30.30 in 4.3 mi NE 8.1 mph - N/A   Overcast
10:00 AM 35.6 °F 28.6 °F 32.0 °F 87% 30.30 in 4.3 mi ENE 9.2 mph - N/A   Overcast
10:30 AM 35.6 °F 29.2 °F 32.0 °F 87% 30.30 in 4.3 mi NE 8.1 mph - N/A   Overcast
11:00 AM 35.6 °F 28.6 °F 30.2 °F 81% 30.30 in 4.3 mi ENE 9.2 mph - N/A   Overcast
11:30 AM 35.6 °F 28.6 °F 32.0 °F 87% 30.30 in 6.2 mi ENE 9.2 mph - N/A   Overcast
12:00 PM 35.6 °F 29.9 °F 32.0 °F 87% 30.30 in 6.2 mi NE 6.9 mph - N/A   Mostly Cloudy
12:30 PM 37.4 °F 31.4 °F 32.0 °F 81% 30.30 in 6.2 mi NE 8.1 mph - N/A   Mostly Cloudy
1:00 PM 37 °F - 32 °F 74% 30.31 in 9 mi NE 8.1 mph - -   Overcast
1:00 PM 37.4 °F 31.4 °F 32.0 °F 81% 30.27 in 6.2 mi NE 8.1 mph - N/A   Mostly Cloudy
1:30 PM 37.4 °F 30.8 °F 32.0 °F 81% 30.27 in 6.2 mi NE 9.2 mph - N/A   Overcast
2:00 PM 37.4 °F 29.8 °F 32.0 °F 81% 30.27 in 6.2 mi NNE 11.5 mph - N/A   Overcast
2:30 PM 37.4 °F 30.8 °F 32.0 °F 81% 30.27 in 6.2 mi NNE 9.2 mph - N/A   Mostly Cloudy
3:00 PM 37.4 °F 30.8 °F 32.0 °F 81% 30.24 in 6.2 mi NNE 9.2 mph - N/A   Mostly Cloudy
3:30 PM 37.4 °F 32.8 °F 32.0 °F 81% 30.24 in 6.2 mi NNE 5.8 mph - N/A   Overcast
4:00 PM 37.4 °F 32.1 °F 32.0 °F 81% 30.24 in 6.2 mi NNE 6.9 mph - N/A   Overcast
4:30 PM 37.4 °F 31.4 °F 32.0 °F 81% 30.24 in 6.2 mi NNE 8.1 mph - N/A   Overcast
5:00 PM 37.4 °F 32.1 °F 32.0 °F 81% 30.24 in 6.2 mi NE 6.9 mph - N/A   Overcast
5:30 PM 35.6 °F 29.9 °F 32.0 °F 87% 30.24 in 6.2 mi NE 6.9 mph - N/A   Overcast
6:00 PM 35.6 °F 29.9 °F 32.0 °F 87% 30.24 in 6.2 mi NE 6.9 mph - N/A   Overcast
6:30 PM 35.6 °F 29.2 °F 32.0 °F 87% 30.24 in 6.2 mi NE 8.1 mph - N/A   Overcast
7:00 PM 35 °F - 32 °F 84% 30.28 in 6 mi NE 6.9 mph - -   Overcast
7:00 PM 35.6 °F 29.9 °F 32.0 °F 87% 30.24 in 6.2 mi NE 6.9 mph - N/A   Mostly Cloudy
7:30 PM 35.6 °F 29.2 °F 32.0 °F 87% 30.24 in 6.2 mi NE 8.1 mph - N/A   Mostly Cloudy
8:00 PM 35.6 °F 29.2 °F 32.0 °F 87% 30.24 in 6.2 mi NNE 8.1 mph - N/A   Mostly Cloudy
8:30 PM 35.6 °F 29.2 °F 32.0 °F 87% 30.24 in 6.2 mi NNE 8.1 mph - N/A   Mostly Cloudy
9:00 PM 35.6 °F 29.2 °F 32.0 °F 87% 30.24 in 6.2 mi NNE 8.1 mph - N/A   Mostly Cloudy
9:30 PM 35.6 °F 30.7 °F 32.0 °F 87% 30.24 in 6.2 mi NNE 5.8 mph - N/A   Mostly Cloudy
10:00 PM 35.6 °F 29.2 °F 32.0 °F 87% 30.24 in 6.2 mi NE 8.1 mph - N/A   Overcast
10:30 PM 35.6 °F 29.2 °F 32.0 °F 87% 30.24 in 6.2 mi NE 8.1 mph - N/A   Overcast
11:00 PM 35.6 °F 29.2 °F 32.0 °F 87% 30.24 in 6.2 mi NE 8.1 mph - N/A   Overcast
11:30 PM 35.6 °F 29.2 °F 32.0 °F 87% 30.24 in 6.2 mi NNE 8.1 mph - N/A   Overcast